sat.trackr.live / text

‹ back to catalog

KUIPER-00071

NORAD 64818 · 2025-151C

PAYLOAD ACTIVE UNKNOWN

§ Identity

Operator
Country
US
Launch date
2025-07-16
Launch site
AFETR
Launch vehicle
Mass (kg)
RCS (m²)

External: N2YO · Heavens-Above · Gunter

§ Orbital elements

Epoch: 2026-05-24T21:32:04.181568Z

Period
97.30 min
Inclination
51.9000°
Eccentricity
0.0000710
Mean motion
14.79931633 rev/d
Perigee alt
629.0 km
Apogee alt
630.0 km
Semi-major
7,007.7 km
B*
-1.8696e-5
RAAN
326.0993°
Arg perigee
96.8747°
Mean anomaly
263.2296°
Rev number
4,655

§ Raw data

KUIPER-000711 64818U 25151C   26144.89727062 -.00000364  00000+0 -18696-4 0  99972 64818  51.9000 326.0993 0000710  96.8747 263.2296 14.79931633 46551

JSON: /api/v1/satellites/64818 · /tle

For live sub-satellite position, see the globe view (requires WebGL).

§ Visibility from observer

Set your observer location to see the next 7 days of passes ≥ 10°. The values pass through the URL so the page stays shareable.

No JS? Fill the form by hand. The geolocation button needs JavaScript.